TITAN 3C TRANSTAGE DEB, 43449

Orbit data source: Space-Track

TITAN 3C TRANSTAGE DEB, 43449 is space debris in GEO originally from a launch on Sun, 09 Feb 1969 UTC launched from the Air Force Eastern Test Range (AFETR). Debris objects in space refer to the collection of defunct objects orbiting the Earth. Examples of debris include non-operational satellites, rocket bodies, and fragments generated from explosions, collisions, or faulty payload assembly.

Not visible in the next 10 days
Identifier
43449, 1969-013J
Orbit
GEO
Country
Flag of USUS
Related business
Manufacturer
Martin Marietta
Mission
Spacecraft
Bus & Motor
Unknown
Mass
Unknown
Launch date (UTC)
1969-02-09 (57 years ago)
Launch vehicle
Unknown
Launch site
Air Force Eastern Test Range (AFETR)
Object type
Payload
Rocket body
Debris
Shape & HBR
Unknown shape, 1.1 m
Radar Cross Section
RCS unknown

Expand to show TLE details & history
Last TLE update: 1 day ago

TLE from 1 day ago
0 TITAN 3C TRANSTAGE DEB
1 43449U 69013J   26124.18115799 -.00000218  00000-0  00000-0 0  9991
2 43449   1.3188  71.9048 0138557  67.7731 293.2430  0.96592860 28419
Epoch: 2026-05-04T04:20Z
TLE epoch observation values (Epoch: 2026-05-04T04:20:52.050Z)
Latitude
-0°
Longitude
144.16268°
Altitude
36,622.444 km
Speed
3.053 km/s
True Right ascension
04h 45m 48s
True Declination
0° 00' 00"
Sunlit
Object was in daylight at epoch
Visualization orbit readout
Latitude
Unknown
Longitude
Unknown
Altitude
Unknown
Speed
Unknown
Apparent Right ascension
Unknown
Apparent Declination
Unknown
Sunlit
N/A
Visualization observer readout
Local Sidereal Time
20:48:00
Azimuth
Unknown
Elevation
Unknown
Doppler factor
Unknown
Orbital elements
Apogee altitude
37,450.551 km
Perigee altitude
36,252.595 km
Semi-major axis
43,229.71 km
Eccentricity
0.01386
Inclination
1.3188°
RAAN
71.9048°
Arg. of periapsis
67.7731°
True anomaly
291.77424°
Mean anomaly
293.243°
Eccentric anomaly
292.50961°
Mean motion
0.24147 °/min
Orbital period
1,490.85 mins
BSTAR
0
Loading maneuver chart data...
Computing Atmospheric mass density...

Documentation

Showing up to 5 results
|